Location: Bailleul
(50.3375°N, 2.8513°E)
Time: 21:05:05
(UTC+00:00)

Cosmos 1655 Rocket - Pass Details

Date: 19 April 2021
Orbit: 969 x 1007 km, 82.9° (Epoch: 18 May)

Event Time Altitude Azimuth Distance (km) Brightness Sun altitude
Rises 20:53:54 0° 349° (NNW) 3,713 8.0 -17.5°
Reaches altitude 10° 20:56:26 10° 347° (NNW) 2,755 7.2 -17.8°
Maximum altitude 21:02:43 74° 265° (W) 1,020 4.1 -18.5°
Enters shadow 21:07:16 20° 183° (S) 2,109 5.4 -19.0°
